| time (UTC) | temp F | wind direction | speed knots | gust knots | rain 1hr in | rain 24hr in | rain mn in | humidity % | barometer mb |
| 20260506223503 | 79 | 358 | 5.2 | 19.1 | 0.00 | 0.00 | 0.00 | 19 | 1016.9 |
| 20260506222331 | 79 | 349 | 3.5 | 10.4 | 0.00 | 0.00 | 0.00 | 19 | 1017.0 |
| 20260506221329 | 79 | 37 | 9.6 | 15.6 | 0.00 | 0.00 | 0.00 | 19 | 1017.3 |
| 20260506220829 | 79 | 347 | 8.7 | 22.6 | 0.00 | 0.00 | 0.00 | 19 | 1017.3 |
| 20260506215827 | 78 | 10 | 5.2 | 21.7 | 0.00 | 0.00 | 0.00 | 20 | 1017.4 |
| 20260506215326 | 78 | 4 | 7.0 | 17.4 | 0.00 | 0.00 | 0.00 | 20 | 1017.5 |
| 20260506213823 | 76 | 354 | 9.6 | 13.0 | 0.00 | 0.00 | 0.00 | 22 | 1017.6 |
| 20260506212822 | 76 | 356 | 4.3 | 13.9 | 0.00 | 0.00 | 0.00 | 23 | 1017.6 |
| 20260506212321 | 75 | 2 | 3.5 | 12.2 | 0.00 | 0.00 | 0.00 | 22 | 1017.7 |
| 20260506211319 | 76 | 349 | 5.2 | 13.0 | 0.00 | 0.00 | 0.00 | 23 | 1017.7 |
| 20260506210819 | 76 | 359 | 8.7 | 16.5 | 0.00 | 0.00 | 0.00 | 23 | 1017.6 |
| 20260506205817 | 75 | 355 | 13.0 | 16.5 | 0.00 | 0.00 | 0.00 | 23 | 1017.7 |
| 20260506205316 | 74 | 0 | 14.8 | 14.8 | 0.00 | 0.00 | 0.00 | 24 | 1017.7 |
| 20260506204314 | 75 | 329 | 8.7 | 13.0 | 0.00 | 0.00 | 0.00 | 24 | 1017.8 |
| 20260506203814 | 74 | 314 | 4.3 | 13.0 | 0.00 | 0.00 | 0.00 | 24 | 1017.8 |
| 20260506202812 | 74 | 351 | 8.7 | 11.3 | 0.00 | 0.00 | 0.00 | 23 | 1017.9 |
| 20260506202313 | 75 | 351 | 10.4 | 13.9 | 0.00 | 0.00 | 0.00 | 23 | 1017.9 |
| 20260506201309 | 74 | 0 | 7.0 | 16.5 | 0.00 | 0.00 | 0.00 | 24 | 1018.0 |
| 20260506200809 | 75 | 34 | 3.5 | 12.2 | 0.00 | 0.00 | 0.00 | 23 | 1017.9 |
| 20260506195852 | 76 | 355 | 22.6 | 22.6 | 0.00 | 0.00 | 0.00 | 23 | 1017.9 |
| 20260506195751 | 76 | 351 | 4.3 | 8.7 | 0.00 | 0.00 | 0.00 | 23 | 1017.9 |
| 20260506194749 | 76 | 346 | 12.2 | 15.6 | 0.00 | 0.00 | 0.00 | 23 | 1017.9 |
| 20260506194249 | 75 | 1 | 10.4 | 14.8 | 0.00 | 0.00 | 0.00 | 24 | 1018.0 |
| 20260506193247 | 73 | 37 | 7.0 | 13.0 | 0.00 | 0.00 | 0.00 | 24 | 1018.2 |
| 20260506192746 | 73 | 32 | 12.2 | 12.2 | 0.00 | 0.00 | 0.00 | 23 | 1018.2 |
| 20260506191744 | 74 | 356 | 13.0 | 20.9 | 0.00 | 0.00 | 0.00 | 24 | 1018.1 |
| 20260506191244 | 73 | 0 | 12.2 | 13.9 | 0.00 | 0.00 | 0.00 | 24 | 1018.2 |
| 20260506190242 | 74 | 352 | 8.7 | 16.5 | 0.00 | 0.00 | 0.00 | 24 | 1018.1 |
| 20260506185741 | 73 | 4 | 15.6 | 15.6 | 0.00 | 0.00 | 0.00 | 23 | 1018.2 |
| 20260506184238 | 73 | 2 | 8.7 | 16.5 | 0.00 | 0.00 | 0.00 | 24 | 1018.4 |
| 20260506183237 | 73 | 357 | 12.2 | 13.9 | 0.00 | 0.00 | 0.00 | 24 | 1018.3 |
| 20260506182736 | 72 | 338 | 10.4 | 16.5 | 0.00 | 0.00 | 0.00 | 25 | 1018.3 |
| 20260506181734 | 72 | 0 | 9.6 | 13.9 | 0.00 | 0.00 | 0.00 | 25 | 1018.4 |
| 20260506181233 | 71 | 0 | 10.4 | 12.2 | 0.00 | 0.00 | 0.00 | 26 | 1018.5 |
| 20260506180232 | 71 | 358 | 12.2 | 14.8 | 0.00 | 0.00 | 0.00 | 27 | 1018.4 |
| 20260506175731 | 70 | 330 | 10.4 | 15.6 | 0.00 | 0.00 | 0.00 | 27 | 1018.4 |
| 20260506174729 | 70 | 11 | 8.7 | 18.2 | 0.00 | 0.00 | 0.00 | 27 | 1018.4 |
| 20260506174228 | 70 | 348 | 13.9 | 18.2 | 0.00 | 0.00 | 0.00 | 28 | 1018.2 |
| 20260506173226 | 70 | 341 | 8.7 | 15.6 | 0.00 | 0.00 | 0.00 | 29 | 1018.2 |
| 20260506172726 | 70 | 339 | 11.3 | 15.6 | 0.00 | 0.00 | 0.00 | 28 | 1018.1 |
| 20260506171724 | 69 | 316 | 8.7 | 18.2 | 0.00 | 0.00 | 0.00 | 29 | 1018.0 |
| 20260506171223 | 69 | 356 | 12.2 | 13.9 | 0.00 | 0.00 | 0.00 | 30 | 1018.2 |
| 20260506170221 | 68 | 335 | 9.6 | 15.6 | 0.00 | 0.00 | 0.00 | 30 | 1018.1 |
| 20260506165722 | 68 | 355 | 13.9 | 15.6 | 0.00 | 0.00 | 0.00 | 30 | 1018.1 |
| 20260506164218 | 67 | 358 | 10.4 | 14.8 | 0.00 | 0.00 | 0.00 | 30 | 1018.0 |
| 20260506163216 | 67 | 0 | 10.4 | 13.9 | 0.00 | 0.00 | 0.00 | 31 | 1017.9 |
| 20260506162716 | 67 | 0 | 14.8 | 14.8 | 0.00 | 0.00 | 0.00 | 32 | 1017.9 |
| 20260506161714 | 66 | 43 | 3.5 | 11.3 | 0.00 | 0.00 | 0.00 | 34 | 1017.9 |
| 20260506161213 | 66 | 22 | 8.7 | 9.6 | 0.00 | 0.00 | 0.00 | 33 | 1018.0 |
| 20260506160211 | 66 | 8 | 5.2 | 7.8 | 0.00 | 0.00 | 0.00 | 35 | 1017.9 |
| 20260506155711 | 66 | 354 | 0.9 | 6.1 | 0.00 | 0.00 | 0.00 | 37 | 1017.8 |
| 20260506154709 | 65 | 1 | 3.5 | 5.2 | 0.00 | 0.00 | 0.00 | 37 | 1017.8 |
| 20260506154209 | 65 | 47 | 3.5 | 7.0 | 0.00 | 0.00 | 0.00 | 37 | 1017.8 |
| 20260506153206 | 64 | 8 | 1.7 | 3.5 | 0.00 | 0.00 | 0.00 | 40 | 1017.8 |
| 20260506152707 | 63 | 32 | 0.9 | 7.0 | 0.00 | 0.00 | 0.00 | 40 | 1017.7 |
| 20260506151705 | 62 | 4 | 1.7 | 5.2 | 0.00 | 0.00 | 0.00 | 42 | 1017.7 |
| 20260506151203 | 62 | 346 | 0.9 | 6.1 | 0.00 | 0.00 | 0.00 | 43 | 1017.8 |
| 20260506150201 | 61 | 45 | 4.3 | 5.2 | 0.00 | 0.00 | 0.00 | 44 | 1017.7 |
| 20260506145701 | 60 | 3 | 1.7 | 4.3 | 0.00 | 0.00 | 0.00 | 47 | 1017.6 |
| 20260506144659 | 59 | 74 | 2.6 | 4.3 | 0.00 | 0.00 | 0.00 | 47 | 1017.5 |
| 20260506144158 | 58 | 76 | 1.7 | 5.2 | 0.00 | 0.00 | 0.00 | 48 | 1017.6 |
| 20260506143156 | 57 | 45 | 2.6 | 4.3 | 0.00 | 0.00 | 0.00 | 50 | 1017.5 |
| 20260506142656 | 56 | 43 | 4.3 | 5.2 | 0.00 | 0.00 | 0.00 | 51 | 1017.5 |
| 20260506141655 | 55 | 171 | 0.9 | 2.6 | 0.00 | 0.00 | 0.00 | 55 | 1017.3 |
| 20260506141156 | 54 | 138 | 1.7 | 2.6 | 0.00 | 0.00 | 0.00 | 57 | 1017.4 |
| 20260506140153 | 52 | 180 | 0.9 | 5.2 | 0.00 | 0.00 | 0.00 | 59 | 1017.4 |
| 20260506135651 | 52 | 180 | 4.3 | 5.2 | 0.00 | 0.00 | 0.00 | 60 | 1017.2 |
| 20260506134649 | 50 | 170 | 2.6 | 3.5 | 0.00 | 0.00 | 0.00 | 62 | 1017.3 |
| 20260506134148 | 50 | 180 | 3.5 | 5.2 | 0.00 | 0.00 | 0.00 | 63 | 1017.1 |
| 20260506133143 | 49 | 180 | 3.5 | 5.2 | 0.00 | 0.00 | 0.00 | 63 | 1017.1 |
| 20260506132643 | 48 | 180 | 5.2 | 5.2 | 0.00 | 0.00 | 0.00 | 63 | 1017.1 |
| 20260506131641 | 48 | 180 | 4.3 | 5.2 | 0.00 | 0.00 | 0.00 | 63 | 1017.1 |
| 20260506131140 | 48 | 178 | 3.5 | 5.2 | 0.00 | 0.00 | 0.00 | 63 | 1017.0 |
| 20260506130138 | 49 | 180 | 4.3 | 5.2 | 0.00 | 0.00 | 0.00 | 61 | 1016.9 |
| 20260506125638 | 49 | 180 | 6.1 | 6.1 | 0.00 | 0.00 | 0.00 | 59 | 1016.6 |
| 20260506124136 | 50 | 359 | 0.9 | 3.5 | 0.00 | 0.00 | 0.00 | 60 | 1016.4 |
| 20260506123132 | 49 | 135 | 2.6 | 5.2 | 0.00 | 0.00 | 0.00 | 61 | 1016.4 |
| 20260506122632 | 48 | 180 | 5.2 | 7.0 | 0.00 | 0.00 | 0.00 | 62 | 1016.1 |
| 20260506121630 | 48 | 180 | 7.0 | 7.0 | 0.00 | 0.00 | 0.00 | 62 | 1016.1 |
| 20260506121129 | 48 | 182 | 5.2 | 6.1 | 0.00 | 0.00 | 0.00 | 62 | 1016.0 |
| 20260506120127 | 48 | 179 | 5.2 | 6.1 | 0.00 | 0.00 | 0.00 | 62 | 1016.0 |
| 20260506115627 | 48 | 180 | 5.2 | 6.1 | 0.00 | 0.00 | 0.00 | 62 | 1015.9 |
| 20260506114625 | 48 | 180 | 5.2 | 6.1 | 0.00 | 0.00 | 0.00 | 62 | 1015.8 |
| 20260506114124 | 48 | 180 | 5.2 | 5.2 | 0.00 | 0.00 | 0.00 | 61 | 1015.8 |
| 20260506113122 | 48 | 180 | 4.3 | 4.3 | 0.00 | 0.00 | 0.00 | 61 | 1015.7 |
| 20260506112622 | 48 | 180 | 2.6 | 5.2 | 0.00 | 0.00 | 0.00 | 61 | 1015.7 |
| 20260506111620 | 49 | 181 | 4.3 | 5.2 | 0.00 | 0.00 | 0.00 | 60 | 1015.7 |
| 20260506111119 | 49 | 180 | 5.2 | 5.2 | 0.00 | 0.00 | 0.00 | 59 | 1015.7 |
| 20260506110117 | 49 | 180 | 3.5 | 5.2 | 0.00 | 0.00 | 0.00 | 59 | 1015.7 |
| 20260506105617 | 49 | 194 | 3.5 | 5.2 | 0.00 | 0.00 | 0.00 | 60 | 1015.6 |
| 20260506104615 | 48 | 180 | 4.3 | 7.8 | 0.00 | 0.00 | 0.00 | 62 | 1015.5 |
| 20260506104114 | 48 | 185 | 5.2 | 9.6 | 0.00 | 0.00 | 0.00 | 62 | 1015.6 |
| 20260506103112 | 49 | 178 | 4.3 | 6.1 | 0.00 | 0.00 | 0.00 | 61 | 1015.6 |
| 20260506102612 | 49 | 178 | 4.3 | 6.1 | 0.00 | 0.00 | 0.00 | 60 | 1015.4 |
| 20260506101610 | 50 | 180 | 3.5 | 6.1 | 0.00 | 0.00 | 0.00 | 60 | 1015.2 |
| 20260506101109 | 50 | 178 | 2.6 | 4.3 | 0.00 | 0.00 | 0.00 | 59 | 1015.1 |
| 20260506100107 | 50 | 180 | 4.3 | 4.3 | 0.00 | 0.00 | 0.00 | 59 | 1015.1 |
| 20260506095607 | 50 | 180 | 4.3 | 5.2 | 0.00 | 0.00 | 0.00 | 59 | 1015.1 |
| 20260506094605 | 50 | 180 | 4.3 | 6.1 | 0.00 | 0.00 | 0.00 | 59 | 1015.0 |
| 20260506094104 | 50 | 171 | 2.6 | 6.1 | 0.00 | 0.00 | 0.00 | 58 | 1015.1 |
| 20260506093104 | 50 | 180 | 5.2 | 6.1 | 0.00 | 0.00 | 0.00 | 58 | 1015.1 |
| 20260506092602 | 51 | 180 | 3.5 | 5.2 | 0.00 | 0.00 | 0.00 | 57 | 1015.1 |
| 20260506091600 | 52 | 180 | 0.9 | 3.5 | 0.00 | 0.00 | 0.00 | 54 | 1015.0 |
| 20260506091059 | 52 | 180 | 2.6 | 3.5 | 0.00 | 0.00 | 0.00 | 55 | 1014.9 |
| 20260506090057 | 52 | 180 | 3.5 | 4.3 | 0.00 | 0.00 | 0.00 | 55 | 1015.0 |
| 20260506085556 | 53 | 180 | 4.3 | 5.2 | 0.00 | 0.00 | 0.00 | 54 | 1014.9 |
| 20260506084555 | 53 | 180 | 4.3 | 5.2 | 0.00 | 0.00 | 0.00 | 53 | 1014.9 |
| 20260506084054 | 54 | 180 | 4.3 | 4.3 | 0.00 | 0.00 | 0.00 | 51 | 1014.8 |
| 20260506083052 | 55 | 180 | 1.7 | 1.7 | 0.00 | 0.00 | 0.00 | 45 | 1014.9 |
| 20260506082551 | 56 | 0 | 0.0 | 0.9 | 0.00 | 0.00 | 0.00 | 44 | 1014.8 |
| 20260506081550 | 56 | 315 | 1.7 | 3.5 | 0.00 | 0.00 | 0.00 | 43 | 1014.8 |
| 20260506081049 | 57 | 301 | 3.5 | 4.3 | 0.00 | 0.00 | 0.00 | 43 | 1014.8 |
| 20260506073042 | 56 | 357 | 7.8 | 10.4 | 0.00 | 0.00 | 0.00 | 43 | 1014.8 |
| 20260506072541 | 56 | 0 | 9.6 | 9.6 | 0.00 | 0.00 | 0.00 | 43 | 1014.9 |
| 20260506071540 | 56 | 0 | 4.3 | 5.2 | 0.00 | 0.00 | 0.00 | 42 | 1014.9 |
| 20260506071039 | 56 | 0 | 3.5 | 6.1 | 0.00 | 0.00 | 0.00 | 42 | 1014.9 |
| 20260506061528 | 55 | 316 | 2.6 | 6.1 | 0.00 | 0.00 | 0.00 | 41 | 1014.6 |
| 20260506061028 | 55 | 322 | 6.1 | 6.1 | 0.00 | 0.00 | 0.00 | 41 | 1014.5 |
| 20260506051017 | 53 | 206 | 2.6 | 6.1 | 0.00 | 0.00 | 0.00 | 43 | 1014.2 |
| 20260506044512 | 53 | 180 | 4.3 | 6.1 | 0.00 | 0.00 | 0.00 | 42 | 1013.9 |
| 20260506044012 | 54 | 180 | 5.2 | 7.0 | 0.00 | 0.00 | 0.00 | 41 | 1013.8 |
| 20260506043010 | 55 | 180 | 5.2 | 6.1 | 0.00 | 0.00 | 0.00 | 40 | 1013.7 |
| 20260506042509 | 55 | 181 | 3.5 | 5.2 | 0.00 | 0.00 | 0.00 | 39 | 1013.6 |
| 20260506041507 | 57 | 180 | 4.3 | 4.3 | 0.00 | 0.00 | 0.00 | 37 | 1013.4 |
| 20260506041007 | 57 | 179 | 2.6 | 2.6 | 0.00 | 0.00 | 0.00 | 36 | 1013.3 |
| 20260506040006 | 59 | 180 | 1.7 | 1.7 | 0.00 | 0.00 | 0.00 | 32 | 1013.2 |
| 20260506035504 | 60 | 309 | 1.7 | 1.7 | 0.00 | 0.00 | 0.00 | 31 | 1013.1 |
| 20260506034502 | 60 | 315 | 0.9 | 1.7 | 0.00 | 0.00 | 0.00 | 30 | 1012.8 |
| 20260506034002 | 60 | 315 | 1.7 | 1.7 | 0.00 | 0.00 | 0.00 | 31 | 1012.8 |
| 20260506032459 | 61 | 346 | 1.7 | 3.5 | 0.00 | 0.00 | 0.00 | 30 | 1012.5 |
| 20260506031457 | 62 | 357 | 2.6 | 4.3 | 0.00 | 0.00 | 0.00 | 30 | 1012.4 |
| 20260506030957 | 62 | 345 | 3.5 | 6.1 | 0.00 | 0.00 | 0.00 | 30 | 1012.3 |
| 20260506025452 | 62 | 340 | 3.5 | 7.0 | 0.00 | 0.00 | 0.00 | 29 | 1012.1 |
| 20260506024450 | 63 | 356 | 4.3 | 8.7 | 0.00 | 0.00 | 0.00 | 29 | 1011.9 |
| 20260506023950 | 63 | 350 | 6.1 | 8.7 | 0.00 | 0.00 | 0.00 | 29 | 1011.8 |
| 20260506022449 | 65 | 349 | 9.6 | 13.0 | 0.00 | 0.00 | 0.00 | 28 | 1011.6 |
| 20260506021445 | 65 | 340 | 7.0 | 12.2 | 0.00 | 0.00 | 0.00 | 28 | 1011.4 |
| 20260506020946 | 66 | 353 | 12.2 | 13.0 | 0.00 | 0.00 | 0.00 | 28 | 1011.4 |
| 20260506015943 | 66 | 342 | 8.7 | 14.8 | 0.00 | 0.00 | 0.00 | 27 | 1011.2 |
| 20260506015442 | 66 | 351 | 9.6 | 15.6 | 0.00 | 0.00 | 0.00 | 26 | 1011.1 |
| 20260506014439 | 67 | 332 | 13.9 | 13.9 | 0.00 | 0.00 | 0.00 | 26 | 1010.9 |
| 20260506013939 | 67 | 340 | 11.3 | 15.6 | 0.00 | 0.00 | 0.00 | 25 | 1010.8 |
| 20260506012937 | 68 | 346 | 7.8 | 11.3 | 0.00 | 0.00 | 0.00 | 22 | 1010.8 |
| 20260506012436 | 68 | 319 | 5.2 | 8.7 | 0.00 | 0.00 | 0.00 | 21 | 1010.8 |
| 20260506011434 | 68 | 357 | 9.6 | 10.4 | 0.00 | 0.00 | 0.00 | 21 | 1010.7 |
| 20260506010934 | 69 | 323 | 4.3 | 7.8 | 0.00 | 0.00 | 0.00 | 21 | 1010.7 |
| 20260506005932 | 69 | 40 | 5.2 | 10.4 | 0.00 | 0.00 | 0.00 | 20 | 1010.7 |
| 20260506005431 | 70 | 0 | 10.4 | 12.2 | 0.00 | 0.00 | 0.00 | 19 | 1010.6 |
| 20260506004429 | 71 | 357 | 4.3 | 9.6 | 0.00 | 0.00 | 0.00 | 20 | 1010.6 |
| 20260506003929 | 71 | 346 | 6.1 | 12.2 | 0.00 | 0.00 | 0.00 | 20 | 1010.5 |
| 20260506002927 | 73 | 344 | 6.1 | 7.8 | 0.00 | 0.00 | 0.00 | 20 | 1010.4 |
| 20260506002426 | 73 | 358 | 3.5 | 8.7 | 0.00 | 0.00 | 0.00 | 19 | 1010.4 |
| 20260506001424 | 74 | 331 | 7.0 | 12.2 | 0.00 | 0.00 | 0.00 | 20 | 1010.3 |
| 20260506000924 | 74 | 339 | 7.0 | 8.7 | 0.00 | 0.00 | 0.00 | 19 | 1010.3 |
| 20260505235922 | 74 | 288 | 5.2 | 7.8 | 0.00 | 0.00 | 0.00 | 19 | 1010.3 |
| 20260505235421 | 74 | 307 | 4.3 | 7.0 | 0.00 | 0.00 | 0.00 | 20 | 1010.2 |
| 20260505234419 | 72 | 274 | 7.0 | 7.0 | 0.00 | 0.00 | 0.00 | 21 | 1010.2 |
| 20260505233919 | 71 | 315 | 4.3 | 9.6 | 0.00 | 0.00 | 0.00 | 22 | 1010.3 |
| 20260505232917 | 70 | 358 | 7.8 | 8.7 | 0.00 | 0.00 | 0.00 | 21 | 1010.3 |
| 20260505232416 | 70 | 341 | 2.6 | 5.2 | 0.00 | 0.00 | 0.00 | 22 | 1010.4 |
| 20260505231414 | 69 | 225 | 2.6 | 4.3 | 0.00 | 0.00 | 0.00 | 21 | 1010.5 |
| 20260505230914 | 70 | 321 | 4.3 | 10.4 | 0.00 | 0.00 | 0.00 | 22 | 1010.4 |
| 20260505225410 | 70 | 318 | 5.2 | 10.4 | 0.00 | 0.00 | 0.00 | 22 | 1010.5 |